HELLAS-SAT 3

Last updated on Wed Sep 09 2026 00:03:01 GMT+0000 (Coordinated Universal Time)

1 42814U 17040A 26251.45270653 .00000131 00000+0 00000+0 0 9992 2 42814 0.0634 46.5872 0001985 65.5167 77.3780 1.00270927 33645
UTC large
Height (km)
Speed (km/s)
/
Latitude / Longitude
Inclination (degrees)
Orbital Period (minutes)
Azimuth
Elevation
Range (km)
Doppler Factor

Next 0 passes for location: London (51.5072 / 0.1276)

No passes found over London.
HELLAS-SAT 3